Geneva, Switzerland

9:19 AM CEST on July 26, 2017 (GMT +0200)
Cointrin

Weather History for LSGG - March, 2013

Change the Weather History Date:

Thursday, March 21, 2013

  Actual Average Record
Temperature  
Mean Temperature 42 °F -  
Max Temperature 52 °F 54 °F 66 °F (2002)
Min Temperature 32 °F 36 °F 28 °F (1997)
Degree Days  
Heating Degree Days 23    
Moisture  
Dew Point 30 °F    
Average Humidity 58    
Maximum Humidity 93    
Minimum Humidity 22    
Precipitation  
Precipitation 0.00 in 0.09 in - ()
Sea Level Pressure  
Sea Level Pressure 30.02 in    
Wind  
Wind Speed 3 mph ()    
Max Wind Speed 8 mph    
Max Gust Speed -    
Visibility 6.2 miles    
Events Rain    
Averages and records for this station are not official NWS values.
T = Trace of Precipitation, MM = Missing Value Source: Averaged Metar Reports

Daily Weather History Graph

Daily Weather History Graph

Search for Another Location

Airport or City:

Trip Planner

Search our weather history database for the weather conditions in past years. The results will help you decide how hot, cold, wet, or windy it might be!

Date:

Astronomy

Mar. 21, 2013 Rise Set
Actual Time 6:36 AM CET 6:49 PM CET
Civil Twilight 6:06 AM CET 7:19 PM CET
Nautical Twilight 5:31 AM CET 7:54 PM CET
Astronomical Twilight 4:55 AM CET 8:31 PM CET
Moon 12:47 PM CET (3/21) 3:04 AM CET (3/21)
Length of Visible Light 13h 12m
Length of Day
12h 12m
Waxing Gibbous, 66% of the Moon is Illuminated
Mar 21
Waxing Gibbous
Mar 27
Full
Apr 3
Last Quarter
Apr 10
New
Apr 18
First Quarter

Hourly Weather History & Observations

Time (CET) Temp. Windchill Dew Point Humidity Pressure Visibility Wind Dir Wind Speed Gust Speed Precip Events Conditions
12:00 AM 42 °F - 30 °F 51% 30.02 in - SW 3.5 mph - -  
12:20 AM 44.6 °F 41.4 °F 30.2 °F 57% 29.98 in 6.2 mi Variable 5.8 mph - N/A   Mostly Cloudy
12:50 AM 42.8 °F 40.1 °F 30.2 °F 61% 29.98 in 6.2 mi WSW 4.6 mph - N/A   Mostly Cloudy
1:00 AM 42 °F - 30 °F 52% 30.03 in 47 mi WNW 3.5 mph - -   Partly Cloudy
1:20 AM 41.0 °F - 32.0 °F 70% 30.01 in 6.2 mi Variable 2.3 mph - N/A   Mostly Cloudy
1:50 AM 39.2 °F 37.0 °F 33.8 °F 81% 30.01 in 6.2 mi Variable 3.5 mph - N/A   Mostly Cloudy
2:00 AM 40 °F - 33 °F 67% 30.05 in - NE 3.5 mph - -  
2:50 AM 39.2 °F - 35.6 °F 87% 30.01 in 6.2 mi Calm Calm - N/A Rain Light Rain Showers
3:00 AM 39 °F - 35 °F 79% 30.07 in - East 2.3 mph - -  
3:20 AM 39.2 °F - 33.8 °F 81% 30.04 in 6.2 mi SW 2.3 mph - N/A   Mostly Cloudy
3:50 AM 37.4 °F - 33.8 °F 87% 30.04 in 6.2 mi Variable 1.2 mph - N/A   Mostly Cloudy
4:20 AM 37.4 °F - 33.8 °F 87% 30.01 in 6.2 mi ESE 2.3 mph - N/A   Scattered Clouds
4:50 AM 35.6 °F - 32.0 °F 87% 30.01 in 6.2 mi Calm Calm - N/A   Partly Cloudy
5:00 AM 35 °F - 32 °F 85% 30.08 in - East 2.3 mph - -  
5:20 AM 33.8 °F 30.8 °F 32.0 °F 93% 30.04 in 6.2 mi West 3.5 mph - N/A   Partly Cloudy
5:50 AM 33.8 °F - 32.0 °F 93% 30.04 in 6.2 mi Variable 1.2 mph - N/A   Partly Cloudy
6:00 AM 33 °F - 31 °F 91% 30.10 in - SW 1.2 mph - -  
6:20 AM 33.8 °F - 32.0 °F 93% 30.04 in 6.2 mi Variable 2.3 mph - N/A   Scattered Clouds
6:50 AM 35.6 °F - 32.0 °F 87% 30.04 in 6.2 mi Calm Calm - N/A   Mostly Cloudy
7:00 AM 35 °F - 32 °F 85% 30.11 in 44 mi South 2.3 mph - -   Partly Cloudy
7:20 AM 35.6 °F - 32.0 °F 87% 30.04 in 6.2 mi Variable 1.2 mph - N/A   Mostly Cloudy
7:50 AM 37.4 °F - 33.8 °F 87% 30.06 in 6.2 mi Calm Calm - N/A   Mostly Cloudy
8:00 AM 38 °F - 33 °F 74% 30.10 in - NE 2.3 mph - -  
8:20 AM 37.4 °F 34.9 °F 33.8 °F 87% 30.04 in 6.2 mi Variable 3.5 mph - N/A   Scattered Clouds
8:50 AM 41.0 °F - 33.8 °F 76% 30.04 in 6.2 mi Variable 1.2 mph - N/A   Partly Cloudy
9:00 AM 41 °F - 32 °F 61% 30.09 in - NNE 3.5 mph - -  
9:20 AM 44.6 °F - 33.8 °F 66% 30.04 in 6.2 mi Variable 2.3 mph - N/A   Partly Cloudy
9:50 AM 44.6 °F - 33.8 °F 66% 30.04 in 6.2 mi Variable 2.3 mph - N/A   Partly Cloudy
10:20 AM 46.4 °F - 32.0 °F 57% 30.04 in 6.2 mi Variable 2.3 mph - N/A   Partly Cloudy
10:50 AM 48.2 °F - 32.0 °F 54% 30.04 in 6.2 mi Variable 2.3 mph - N/A   Scattered Clouds
11:00 AM 48 °F - 31 °F 40% 30.05 in - NE 2.3 mph - -  
11:20 AM 48.2 °F - 30.2 °F 50% 30.04 in 6.2 mi Variable 2.3 mph - N/A   Mostly Cloudy
11:50 AM 50.0 °F - 28.4 °F 43% 30.04 in 6.2 mi Variable 2.3 mph - N/A   Mostly Cloudy
12:00 PM 49 °F - 28 °F 31% 30.05 in - SSW 3.5 mph - -  
12:20 PM 50.0 °F - 28.4 °F 43% 30.04 in 6.2 mi Variable 5.8 mph - N/A   Mostly Cloudy
12:50 PM 51.8 °F - 23.0 °F 33% 30.01 in 6.2 mi SE 4.6 mph - N/A   Mostly Cloudy
1:00 PM 50 °F - 23 °F 22% 30.04 in 44 mi SE 5.8 mph - -   Scattered Clouds
1:20 PM 51.8 °F - 23.0 °F 33% 30.01 in 6.2 mi East 6.9 mph - N/A   Mostly Cloudy
1:50 PM 51.8 °F - 23.0 °F 33% 30.01 in 6.2 mi Variable 3.5 mph - N/A   Mostly Cloudy
2:00 PM 50 °F - 23 °F 22% 30.03 in - ESE 5.8 mph - -  
2:20 PM 51.8 °F - 23.0 °F 33% 30.01 in 6.2 mi East 5.8 mph - N/A   Mostly Cloudy
2:50 PM 51.8 °F - 26.6 °F 38% 30.01 in 6.2 mi East 5.8 mph - N/A   Scattered Clouds
3:00 PM 52 °F - 25 °F 22% 30.01 in - East 6.9 mph - -  
3:20 PM 51.8 °F - 24.8 °F 35% 29.98 in 6.2 mi East 4.6 mph - N/A   Mostly Cloudy
3:50 PM 51.8 °F - 23.0 °F 33% 29.98 in 6.2 mi ENE 6.9 mph - N/A   Mostly Cloudy
4:20 PM 50.0 °F - 26.6 °F 40% 29.98 in 6.2 mi NE 8.1 mph - N/A   Mostly Cloudy
4:50 PM 48.2 °F - 26.6 °F 43% 29.98 in 6.2 mi NE 8.1 mph - N/A   Mostly Cloudy
5:00 PM 49 °F - 25 °F 27% 29.99 in - NE 8.1 mph - -  
5:20 PM 48.2 °F - 26.6 °F 43% 29.98 in - NE 8.1 mph - N/A   Clear
5:50 PM 48.2 °F - 26.6 °F 43% 29.98 in - NE 6.9 mph - N/A   Clear
6:00 PM 48 °F - 25 °F 28% 29.99 in - NE 6.9 mph - -  
6:20 PM 48.2 °F - 26.6 °F 43% 29.98 in 6.2 mi NNE 4.6 mph - N/A   Mostly Cloudy
6:50 PM 46.4 °F - 28.4 °F 50% 29.98 in 6.2 mi Variable 2.3 mph - N/A   Mostly Cloudy
7:00 PM 46 °F - 26 °F 32% 30.00 in 31 mi North 3.5 mph - -   Mostly Cloudy
7:20 PM 46.4 °F - 26.6 °F 46% 29.98 in - Variable 2.3 mph - N/A   Clear
7:50 PM 44.6 °F - 28.4 °F 53% 29.98 in 6.2 mi Variable 2.3 mph - N/A   Mostly Cloudy
8:00 PM 45 °F - 26 °F 35% 30.00 in - North 2.3 mph - -  
8:20 PM 44.6 °F - 28.4 °F 53% 29.98 in 6.2 mi Variable 2.3 mph - N/A   Mostly Cloudy
8:50 PM 44.6 °F - 30.2 °F 57% 29.98 in 6.2 mi Variable 2.3 mph - N/A   Mostly Cloudy
9:00 PM 44 °F - 29 °F 42% 30.00 in - NNW 1.2 mph - -  
9:20 PM 44.6 °F - 28.4 °F 53% 29.98 in 6.2 mi Variable 1.2 mph - N/A   Mostly Cloudy
9:50 PM 44.6 °F - 30.2 °F 57% 29.98 in 6.2 mi ENE 2.3 mph - N/A   Mostly Cloudy
10:20 PM 44.6 °F - 30.2 °F 57% 29.98 in 6.2 mi Calm Calm - N/A   Mostly Cloudy
10:50 PM 42.8 °F - 33.8 °F 70% 29.95 in 6.2 mi ENE 1.2 mph - N/A   Mostly Cloudy
11:00 PM 43 °F - 31 °F 52% 30.00 in - NE 1.2 mph - -  
11:20 PM 42.8 °F - 32.0 °F 66% 29.95 in 6.2 mi Calm Calm - N/A   Mostly Cloudy
11:50 PM 42.8 °F - 32.0 °F 66% 29.95 in 6.2 mi Calm Calm - N/A   Mostly Cloudy